Chetumal, Mexico

7:14 PM on May 29, 2017 (GMT +0000)
Chetumal International

Weather History for MMCM - March, 2014

Change the Weather History Date:

Thursday, March 6, 2014

  Actual Average Record
Temperature  
Mean Temperature 84 °F -  
Max Temperature 95 °F 83 °F 95 °F (2014)
Min Temperature 72 °F 72 °F 58 °F (2013)
Cooling Degree Days 18    
Growing Degree Days 34 (Base 50)    
Moisture  
Dew Point 73 °F    
Average Humidity 73    
Maximum Humidity 93    
Minimum Humidity 40    
Precipitation  
Precipitation 0.00 in - - ()
Sea Level Pressure  
Sea Level Pressure 29.91 in    
Wind  
Wind Speed 5 mph ()    
Max Wind Speed 17 mph    
Max Gust Speed -    
Visibility 6.5 miles    
Events      
Averages and records for this station are not official NWS values.
T = Trace of Precipitation, MM = Missing Value Source: Averaged Metar Reports

Daily Weather History Graph

Daily Weather History Graph

Search for Another Location

Airport or City:

Trip Planner

Search our weather history database for the weather conditions in past years. The results will help you decide how hot, cold, wet, or windy it might be!

Date:

Astronomy

Mar. 06, 2014 Rise Set
Actual Time 6:08 AM CST 6:00 PM CST
Civil Twilight 5:46 AM CST 6:22 PM CST
Nautical Twilight 5:21 AM CST 6:47 PM CST
Astronomical Twilight 4:55 AM CST 7:13 PM CST
Moon 10:03 AM CST (3/6) 11:16 PM CST (3/6)
Length of Visible Light 12h 35m
Length of Day
11h 52m
Waxing Crescent, 32% of the Moon is Illuminated
Mar 6
Waxing Crescent
Mar 8
First Quarter
Mar 16
Full
Mar 23
Last Quarter
Mar 30
New

Hourly Weather History & Observations

Time (CST) Temp. Heat Index Dew Point Humidity Pressure Visibility Wind Dir Wind Speed Gust Speed Precip Events Conditions
2:50 AM 80 °F - 74 °F 77% 29.88 in 5 mi SE 4.5 mph - -   Mostly Cloudy
5:50 AM 75 °F - 73 °F 93% 29.91 in 6 mi West 2.2 mph - -   Mostly Cloudy
6:43 AM 77.0 °F - 66.2 °F 69% 29.91 in 7.0 mi Calm Calm - N/A   Scattered Clouds
7:41 AM 77.0 °F - 66.2 °F 69% 29.92 in 7.0 mi Calm Calm - N/A   Scattered Clouds
8:40 AM 82.4 °F 90.9 °F 77.0 °F 84% 29.95 in 7.0 mi Calm Calm - N/A   Mostly Cloudy
8:50 AM 85 °F - 74 °F 64% 29.96 in 6 mi ESE 6.7 mph - -   Mostly Cloudy
9:40 AM 82.4 °F 90.9 °F 77.0 °F 84% 29.94 in 7.0 mi ESE 6.9 mph - N/A   Mostly Cloudy
10:41 AM 86.0 °F 96.9 °F 77.0 °F 74% 29.93 in 7.0 mi ESE 6.9 mph - N/A   Mostly Cloudy
11:48 AM 86.0 °F 96.9 °F 77.0 °F 74% 29.91 in 7.0 mi ESE 6.9 mph - N/A   Mostly Cloudy
11:50 AM 92 °F - 72 °F 43% 29.92 in 6 mi East 6.7 mph - -   Partly Cloudy
12:40 PM 87.8 °F 99.7 °F 77.0 °F 70% 29.87 in 7.0 mi ESE 9.2 mph - N/A   Mostly Cloudy
1:43 PM 87.8 °F 99.7 °F 77.0 °F 70% 29.83 in 7.0 mi ESE 9.2 mph - N/A   Mostly Cloudy
2:50 PM 93 °F - 71 °F 40% 29.83 in 6 mi East 6.7 mph - -   Partly Cloudy
3:00 PM 86.0 °F 96.9 °F 77.0 °F 74% 29.82 in 7.0 mi East 11.5 mph - N/A   Mostly Cloudy
3:40 PM 80.6 °F 85.4 °F 73.4 °F 79% 29.83 in 7.0 mi East 6.9 mph - N/A   Overcast
4:40 PM 80.6 °F 85.4 °F 73.4 °F 79% 29.84 in 7.0 mi East 9.2 mph - N/A   Overcast
5:40 PM 78.8 °F - 71.6 °F 78% 29.89 in 7.0 mi East 11.5 mph - N/A   Overcast
5:50 PM 81 °F - 70 °F 62% 29.91 in 6 mi NNW 4.5 mph - -   Partly Cloudy
6:40 PM 78.8 °F - 71.6 °F 78% 29.92 in 7.0 mi North 11.5 mph - N/A   Overcast
7:45 PM 77.0 °F - 69.8 °F 78% 29.95 in 7.0 mi North 17.3 mph - N/A   Overcast
8:40 PM 77.0 °F - 69.8 °F 78% 29.99 in 7.0 mi North 11.5 mph - N/A   Overcast
8:50 PM 77 °F - 71 °F 75% 30.00 in 5 mi North 6.7 mph - -   Overcast
11:50 PM 77 °F - 71 °F 76% 29.99 in 5 mi North 4.5 mph - -   Partly Cloudy